This is the latest recevied weather packets stored in our database for station/object KS5S. If no packets are shown the sender has not sent any weather packets the latest 1 day(s).
| Time | Temp. | Humidity | Pressure | Rain* | Wind** | Luminosity | Snow |
|---|---|---|---|---|---|---|---|
| 1778095356 | 14.44° C | 84% | 1012.2 hPa | 0 mm | - | 173 W/m² | - |
| 1778095053 | 14.44° C | 85% | 1012.1 hPa | 0 mm | - | 161 W/m² | - |
| 1778094749 | 13.89° C | 85% | 1012.3 hPa | 0 mm | - | 130 W/m² | - |
| 1778094143 | 13.89° C | 85% | 1012.4 hPa | 0 mm | - | 139 W/m² | - |
| 1778093840 | 13.89° C | 86% | 1012.6 hPa | 0 mm | - | 119 W/m² | - |
| 1778093234 | 13.89° C | 86% | 1012.7 hPa | 0 mm | - | 126 W/m² | - |
| 1778092628 | 13.89° C | 86% | 1012.8 hPa | 0 mm | - | 139 W/m² | - |
| 1778092021 | 13.89° C | 87% | 1012.8 hPa | 0 mm | - | 125 W/m² | - |
| 1778091718 | 13.89° C | 88% | 1013 hPa | 0 mm | - | 90 W/m² | - |
| 1778090810 | 13.89° C | 88% | 1012.8 hPa | 0 mm | - | 99 W/m² | - |
| 1778090506 | 13.33° C | 88% | 1012.6 hPa | 0 mm | - | 101 W/m² | - |
| 1778089592 | 13.89° C | 88% | 1011.1 hPa | 0 mm | - | 145 W/m² | - |
| 1778088986 | 13.89° C | 88% | 1010.7 hPa | 0 mm | - | 207 W/m² | - |
| 1778088380 | 13.89° C | 87% | 1011.1 hPa | 0 mm | - | 185 W/m² | - |
| 1778088076 | 13.89° C | 88% | 1011.3 hPa | 0 mm | - | 179 W/m² | - |
| 1778086860 | 13.89° C | 88% | 1011.9 hPa | 0 mm | - | 166 W/m² | - |
| 1778086254 | 13.89° C | 88% | 1011.8 hPa | 0 mm | - | 136 W/m² | - |
| 1778085344 | 13.89° C | 87% | 1012.3 hPa | 0 mm | - | 116 W/m² | - |
| 1778084736 | 13.33° C | 88% | 1012.1 hPa | 0 mm | - | 165 W/m² | - |
| 1778083822 | 13.89° C | 86% | 1011.8 hPa | 0 mm | - | 259 W/m² | - |
| 1778082915 | 13.89° C | 87% | 1011.5 hPa | 0 mm | - | 509 W/m² | - |
| 1778080898 | 12.22° C | 91% | 1012.1 hPa | 0.51 mm | - | 158 W/m² | - |
| 1778080293 | 12.22° C | 91% | 1012.4 hPa | 0 mm | - | 108 W/m² | - |
| 1778079990 | 12.22° C | 91% | 1012.8 hPa | 0 mm | - | 73 W/m² | - |
| 1778079687 | 12.22° C | 90% | 1012.4 hPa | 0 mm | - | 63 W/m² | - |
* Rain latest hour (hover to see other rain measurements)
** Current wind speed in m/s (hover to see current wind gust speed)